CAPE
0 0 0 0 0 0 0 0 0 0 0 0 0 0 0 0 0 0 0 0 0 0 0 0 0 0 0 0 0 0 0 0 0 0 0 0 0 1 1 1 2 0 2
0 0 0 0 0 0 0 0 0 0 0 0 0 0 0 0 0 0 0 0 0 0 0 0 0 0 0 0 0 0 0 0 0 0 0 0 0 0 0 0 0 1 0
0 0 0 0 0 0 0 0 0 0 0 0 0 0 0 0 0 0 0 0 0 0 0 0 0 0 0 0 0 0 0 1 0 1 1 0 1 0 0 0 0 0 1
0 0 0 0 0 0 0 0 0 0 0 0 0 0 0 0 0 0 0 0 0 0 0 0 0 0 0 0 0 0 0 0 0 0 0 0 0 0 0 0 0 0 0
0 0 0 0 0 0 0 0 0 0 0 0 0 0 0 0 0 0 0 0 0 0 0 0 0 0 0 0 0 0 0 0 0 0 0 0 0 1 0 0 0 0 0
0 0 0 0 0 0 0 0 0 0 0 0 0 0 0 0 0 0 0 0 0 0 0 0 0 0 0 0 1 0 0 0 0 1 1 1 0 0 1 2 2 3 2
0 0 0 0 0 0 0 0 0 0 0 0 0 0 0 0 0 0 0 0 0 0 0 0 0 0 0 0 0 0 0 1 1 0 1 0 0 1 2 1 0 0 1
0 0 0 0 0 0 0 0 0 0 0 0 0 0 0 0 0 0 0 0 0 0 0 0 0 0 0 0 0 0 0 0 1 0 0 0 0 1 3 0 0 0 0
0 0 0 0 0 0 0 0 0 0 0 0 0 0 0 0 0 0 0 0 0 0 0 0 0 0 1 1 0 0 0 0 1 0 2 9 5 1 1 1 0 0 0
0 0 0 0 0 0 0 0 0 0 0 0 0 0 0 0 0 0 0 0 0 0 0 0 0 0 0 0 0 2 0 0 0 0 0 0 1 0 1 1 0 0 0
0 0 0 0 0 0 0 0 0 0 0 0 0 0 0 0 0 0 0 0 0 0 0 0 0 0 0 1 0 0 0 3 1 0 0 0 0 0 0 1 0 0 0
0 0 0 0 0 0 0 0 0 0 0 0 0 0 0 0 0 0 0 0 0 0 0 0 0 0 1 1 0 0 0 0 0 0 0 0 0 0 0 0 0 0 0
0 0 0 0 0 0 0 0 0 0 0 0 0 0 0 0 0 0 0 0 0 0 0 0 0 0 1 0 0 0 0 0 0 0 0 1 0 0 0 0 0 0 0
0 0 0 0 0 0 0 0 0 0 0 0 0 0 0 0 0 0 0 0 0 0 0 0 0 0 0 1 0 0 0 0 0 0 0 0 0 0 0 0 0 0 0
0 0 0 0 0 0 0 0 0 0 0 0 0 0 0 0 0 0 0 0 0 0 0 0 0 0 0 0 0 0 0 0 0 1 0 0 0 0 0 0 0 0 0
0 0 0 0 0 0 0 0 0 0 0 0 0 0 0 0 0 0 0 0 0 0 0 0 0 0 0 0 0 0 0 0 0 0 1 0 0 0 0 0 0 0 0
0 0 0 0 0 0 0 0 0 0 0 0 0 0 0 0 0 0 0 0 0 0 0 0 0 0 0 0 0 0 0 0 0 0 0 0 0 0 0 0 0 0 0
0 0 0 0 0 0 0 0 0 0 0 0 0 0 0 0 0 0 0 0 0 0 0 0 0 0 0 0 0 0 0 0 0 0 0 0 0 0 0 0 0 0 0
0 0 0 0 0 0 0 0 0 0 0 0 0 0 0 0 0 0 0 0 0 0 0 0 0 0 0 0 0 0 0 0 0 0 0 0 0 0 0 0 0 0 0
0 0 0 0 0 0 0 0 0 0 0 0 0 0 0 0 0 0 0 0 0 0 0 0 0 0 0 0 0 0 0 0 0 0 0 0 0 0 0 0 0 0 0
0 0 0 0 0 0 0 0 0 0 0 0 0 0 0 0 0 0 0 0 0 0 0 0 0 0 0 0 0 0 0 0 0 0 0 0 0 0 0 0 0 0 0
0 0 0 0 0 0 0 0 0 0 0 0 0 0 0 0 0 0 0 0 0 0 0 0 0 0 0 0 0 0 0 0 0 0 0 0 0 0 0 0 0 0 0
0 0 0 0 0 0 0 0 0 0 0 0 0 0 0 0 0 0 0 0 0 0 0 0 0 0 0 0 0 0 0 0 0 0 0 0 0 0 0 0 0 0 0
0 0 0 0 0 0 0 0 0 0 0 0 0 0 0 0 0 0 0 0 0 0 0 0 0 0 0 0 0 0 0 0 0 0 0 0 0 0 0 0 0 0 0
0 0 0 0 0 0 0 0 0 0 0 0 0 0 0 0 0 0 0 0 0 0 0 0 0 0 0 0 0 0 0 0 0 0 0 0 0 0 0 0 0 0 0
0 0 0 0 0 0 0 0 0 0 0 0 0 0 0 0 0 0 0 0 0 0 0 0 0 0 0 0 0 0 0 0 0 0 0 0 0 0 0 0 0 0 0
CIN
0 0 0 0 0 0 0 0 0 0 0 0 0 0 0 0 0 0 0 0 0 0 0 0 0 0 0 0 0 0 0 0 0 0 0 0 0 -1 0 0 -1 -1 -3
0 0 0 0 0 0 0 0 0 0 0 0 0 0 0 0 0 0 0 0 0 0 0 0 0 0 0 0 0 0 0 0 0 0 0 0 0 -1 -2 -1 -2 -1 0
0 0 0 0 0 0 0 0 0 0 0 0 0 0 0 0 0 0 0 0 0 0 0 0 0 0 0 0 0 0 0 0 0 0 0 -1 0 -2 -1 -1 0 0 -1
0 0 0 0 0 0 0 0 0 0 0 0 0 0 0 0 0 0 0 0 0 0 0 0 0 0 0 0 0 0 0 0 0 0 0 0 0 -1 -1 -1 0 0 0
0 0 0 0 0 0 0 0 0 0 0 0 0 0 0 0 0 0 0 0 0 0 0 0 0 0 0 0 0 0 0 0 0 0 0 0 0 0 0 -2 0 0 0
0 0 0 0 0 0 0 0 0 0 0 0 0 0 0 0 0 0 0 0 0 0 0 0 0 0 0 0 0 0 0 -1 0 0 0 0 0 -2 -1 0 -1 0 0
0 0 0 0 0 0 0 0 0 0 0 0 0 0 0 0 0 0 0 0 0 0 0 0 0 0 0 0 0 0 0 -1 -1 -1 -1 -2 0 0 0 0 0 0 0
0 0 0 0 0 0 0 0 0 0 0 0 0 0 0 0 0 0 0 0 0 0 0 0 0 0 0 0 0 -1 0 0 -3 0 0 0 -1 -2 0 0 0 0 0
0 0 0 0 0 0 0 0 0 0 0 0 0 0 0 0 0 0 0 0 0 0 0 0 0 0 0 0 -1 0 -1 -1 -2 -2 -1 0 0 0 -1 -3 -2 0 0
0 0 0 0 0 0 0 0 0 0 0 0 0 0 0 0 0 0 0 0 0 0 0 0 0 0 0 0 -1 -2 0 0 0 -5 -6 0 -6 -4 -1 -3 -6 0 0
0 0 0 0 0 0 0 0 0 0 0 0 0 0 0 0 0 0 0 0 0 0 0 0 0 0 0 0 0 0 0 -2 -4 0 0 -6 0 0 -7 -6 -6 0 0
0 0 0 0 0 0 0 0 0 0 0 0 0 0 0 0 0 0 0 0 0 0 0 0 0 0 0 0 0 0 0 0 0 0 0 0 0 0 0 0 0 0 0
0 0 0 0 0 0 0 0 0 0 0 0 0 0 0 0 0 0 0 0 0 0 0 0 0 0 0 0 0 0 0 0 0 0 0 0 0 0 0 0 0 0 0
0 0 0 0 0 0 0 0 0 0 0 0 0 0 0 0 0 0 0 0 0 0 0 0 0 0 0 0 0 0 0 0 0 0 0 0 0 0 0 0 0 0 0
0 0 0 0 0 0 0 0 0 0 0 0 0 0 0 0 0 0 0 0 0 0 0 0 0 0 0 0 0 0 0 0 0 0 0 0 0 0 0 0 0 0 0
0 0 0 0 0 0 0 0 0 0 0 0 0 0 0 0 0 0 0 0 0 0 0 0 0 0 0 0 0 0 0 0 0 0 0 0 0 0 0 0 0 0 0
0 0 0 0 0 0 0 0 0 0 0 0 0 0 0 0 0 0 0 0 0 0 0 0 0 0 0 0 0 0 0 0 0 0 0 0 0 0 0 0 0 0 0
0 0 0 0 0 0 0 0 0 0 0 0 0 0 0 0 0 0 0 0 0 0 0 0 0 0 0 0 0 0 0 0 0 0 0 0 0 0 0 0 0 0 0
0 0 0 0 0 0 0 0 0 0 0 0 0 0 0 0 0 0 0 0 0 0 0 0 0 0 0 0 0 0 0 0 0 0 0 0 0 0 0 0 0 0 0
0 0 0 0 0 0 0 0 0 0 0 0 0 0 0 0 0 0 0 0 0 0 0 0 0 0 0 0 0 0 0 0 0 0 0 0 0 0 0 0 0 0 0
0 0 0 0 0 0 0 0 0 0 0 0 0 0 0 0 0 0 0 0 0 0 0 0 0 0 0 0 0 0 0 0 0 0 0 0 0 0 0 0 0 0 0
0 0 0 0 0 0 0 0 0 0 0 0 0 0 0 0 0 0 0 0 0 0 0 0 0 0 0 0 0 0 0 0 0 0 0 0 0 0 0 0 0 0 0
0 0 0 0 0 0 0 0 0 0 0 0 0 0 0 0 0 0 0 0 0 0 0 0 0 0 0 0 0 0 0 0 0 0 0 0 0 0 0 0 0 0 0
0 0 0 0 0 0 0 0 0 0 0 0 0 0 0 0 0 0 0 0 0 0 0 0 0 0 0 0 0 0 0 0 0 0 0 0 0 0 0 0 0 0 0
0 0 0 0 0 0 0 0 0 0 0 0 0 0 0 0 0 0 0 0 0 0 0 0 0 0 0 0 0 0 0 0 0 0 0 0 0 0 0 0 0 0 0
0 0 0 0 0 0 0 0 0 0 0 0 0 0 0 0 0 0 0 0 0 0 0 0 0 0 0 0 0 0 0 0 0 0 0 0 0 0 0 0 0 0 0
Wind_Speed
21 19 16 14 12 9 8 6 5 5 6 8 9 9 10 12 13 15 16 17 20 22 24 26 27 28 30 31 32 33 35 38 42 43 44 45 47 48 47 47 47 46 47
16 13 11 9 7 6 5 5 5 6 7 6 7 9 10 12 13 15 17 19 21 23 25 26 28 29 30 31 33 35 36 36 41 49 47 46 47 47 47 48 47 46 48
12 9 7 6 5 5 4 4 4 4 4 5 7 8 10 12 14 16 17 19 22 24 25 27 28 29 31 33 34 36 36 37 38 43 48 45 46 47 50 47 48 48 47
11 9 7 7 6 5 4 4 3 3 4 6 8 10 11 13 14 16 19 21 23 24 25 27 28 30 32 33 35 36 37 39 39 43 46 47 47 48 48 52 54 50 53
11 10 9 7 6 5 4 4 4 5 5 6 8 10 12 14 16 18 20 22 23 25 26 27 28 29 31 33 34 36 37 39 42 44 45 47 49 51 52 51 53 55 52
11 10 8 7 6 5 4 5 5 7 8 8 9 10 13 15 17 19 20 21 24 25 27 27 27 29 31 32 34 34 35 38 41 42 45 47 48 49 49 52 53 55 57
12 11 9 8 7 7 6 7 8 8 8 8 10 11 14 16 18 19 21 22 24 25 26 26 28 30 31 32 33 35 35 37 38 41 44 45 47 48 50 51 51 52 51
14 13 11 10 10 9 9 10 9 9 10 10 12 13 15 17 18 19 21 22 24 24 25 26 28 31 32 33 35 37 38 38 38 38 39 42 41 44 45 44 47 46 44
17 15 14 13 12 11 11 11 10 10 11 12 13 13 15 18 18 20 22 23 24 24 25 26 28 30 32 34 36 39 39 40 38 38 38 39 40 42 42 43 45 46 49
19 17 16 14 14 14 12 12 12 12 12 12 14 15 16 18 19 21 21 22 24 25 25 25 27 29 32 34 37 39 41 42 41 41 41 41 39 40 40 38 39 42 42
18 17 16 16 15 14 13 14 12 12 13 14 15 17 18 19 19 20 21 21 23 25 27 28 28 29 32 34 36 39 40 41 41 41 42 41 40 39 39 36 35 33 34
18 17 16 15 14 14 13 13 13 14 15 16 17 19 19 19 19 20 20 21 23 25 29 28 30 31 32 34 36 37 39 41 41 41 42 42 41 40 38 35 33 30 24
18 17 16 15 15 14 14 14 17 17 17 18 20 20 19 19 20 20 21 22 24 26 28 29 31 33 34 34 36 36 39 41 41 41 41 40 39 38 37 34 31 27 23
18 18 17 17 16 17 18 18 18 18 19 21 20 21 21 21 21 21 22 24 26 28 30 31 31 32 33 35 35 38 38 39 40 41 41 39 37 37 36 32 30 26 24
18 18 18 18 19 20 19 19 19 19 17 19 20 20 22 24 22 21 24 25 27 28 31 32 33 34 36 36 37 37 39 40 41 40 40 40 39 38 35 31 26 23 22
18 19 20 20 20 19 19 20 18 18 18 18 19 20 21 22 22 24 25 27 28 29 31 34 35 35 37 37 39 40 40 41 41 41 40 39 39 37 35 30 25 22 21
18 19 20 19 20 19 19 19 20 20 20 20 21 20 22 24 24 25 26 27 29 30 33 34 35 35 36 37 38 40 41 41 41 40 40 39 38 36 35 31 27 23 22
19 20 20 20 21 21 21 22 22 23 24 24 21 23 24 25 26 27 27 29 31 32 32 33 34 34 35 37 37 39 40 41 41 40 40 38 37 36 35 32 27 25 24
19 20 20 20 21 22 22 23 24 24 25 26 25 26 26 27 27 28 28 31 32 32 32 32 32 33 34 36 37 38 38 39 39 39 39 37 36 35 34 31 27 26 25
20 20 21 22 23 24 24 25 26 26 27 28 28 29 28 28 30 29 30 30 31 31 31 31 32 32 33 34 35 36 38 38 38 37 37 36 35 34 33 30 27 27 26
24 24 24 25 25 26 27 28 28 28 29 30 32 30 29 30 30 30 30 30 30 30 30 31 31 32 33 34 35 35 35 36 36 36 35 35 34 35 32 28 27 26 27
27 28 28 29 29 30 30 30 31 32 33 33 34 31 30 31 30 30 30 29 29 28 28 29 31 32 32 33 34 33 34 34 35 34 34 34 34 33 31 29 28 27 28
30 31 31 32 32 32 33 33 34 35 35 35 34 33 31 31 31 31 30 30 29 29 29 29 31 32 32 31 30 31 32 33 33 33 33 34 33 32 30 29 29 28 29
31 32 34 35 35 35 36 37 37 36 36 36 35 34 33 33 32 32 31 30 29 29 30 31 31 32 32 31 30 31 31 31 30 31 30 31 31 30 29 28 28 28 29
34 35 36 37 38 39 39 39 38 38 37 37 37 36 34 34 33 33 32 31 31 31 31 32 32 32 31 31 32 32 31 30 30 29 28 28 30 28 28 27 27 27 27
37 37 38 38 39 39 40 40 40 39 39 38 37 36 35 35 34 33 32 32 32 33 34 34 32 32 32 32 32 33 32 31 30 28 27 27 28 27 26 25 25 25 27
Wind_Direction
278 278 274 270 266 262 260 264 267 297 319 327 335 347 352 354 357 356 358 357 355 353 350 349 348 348 348 349 348 347 343 340 332 333 336 338 338 338 338 339 339 338 337
276 274 272 265 249 240 244 250 278 306 324 338 348 351 353 356 -0 0 356 353 351 348 347 347 346 347 348 348 347 344 343 342 338 333 337 339 339 340 339 338 340 339 338
269 266 263 258 244 237 239 261 288 314 342 349 352 353 356 356 358 355 353 350 348 347 347 346 346 347 346 346 346 346 346 345 343 339 336 340 340 341 339 339 339 338 338
259 256 250 248 249 249 259 273 294 322 329 338 344 347 350 352 351 350 347 346 346 346 347 347 347 348 347 347 347 347 347 345 344 342 339 339 340 340 340 339 337 338 336
251 252 252 254 255 259 268 279 300 312 326 335 340 343 345 346 344 342 343 341 344 344 346 348 349 351 350 350 349 349 348 345 343 342 340 340 340 340 340 339 337 336 337
246 243 241 241 244 248 257 277 298 308 317 330 334 338 339 338 339 339 341 342 342 345 344 348 350 352 351 351 350 350 349 346 344 343 342 340 340 340 340 339 338 337 335
244 242 238 237 247 257 265 277 288 300 312 320 328 331 331 334 335 337 339 342 342 343 346 348 349 349 349 349 348 348 347 345 343 342 340 341 339 340 340 339 339 338 337
244 242 244 248 254 262 270 278 288 298 305 311 318 322 328 331 332 335 339 340 342 344 346 345 346 347 347 347 346 344 344 344 344 343 341 340 340 341 341 341 340 339 340
247 246 248 250 255 261 268 275 286 293 301 308 314 319 324 325 329 333 335 337 340 341 343 345 346 345 345 344 343 342 342 342 344 343 343 343 342 342 342 342 342 341 340
250 249 249 252 257 263 268 275 288 291 297 304 311 316 319 322 326 330 333 336 337 339 341 342 343 343 343 343 341 340 339 340 341 342 342 342 343 343 344 344 342 341 342
249 249 249 255 258 264 270 280 281 288 295 303 308 312 316 321 327 331 334 335 336 337 337 338 339 338 340 341 341 340 339 339 339 339 340 342 342 343 344 345 345 344 343
245 243 245 252 258 262 266 275 281 287 294 299 304 310 316 323 327 330 333 334 335 334 333 335 336 336 336 337 340 341 340 340 339 338 339 340 341 342 343 344 345 345 347
241 243 246 252 257 260 264 272 282 285 290 295 301 306 313 320 324 327 329 330 331 331 332 333 334 335 336 337 338 340 340 340 339 338 338 338 340 341 342 343 345 348 348
242 243 248 251 256 266 274 277 277 281 288 294 298 303 309 314 318 322 324 326 328 329 329 329 331 334 336 337 338 338 340 340 339 338 338 338 339 341 341 343 343 346 346
242 245 248 255 262 266 270 273 278 287 292 294 298 303 306 309 312 317 321 323 325 326 328 330 331 332 332 334 336 338 339 340 340 339 339 338 339 339 339 341 341 342 341
245 250 255 258 263 265 268 278 289 294 294 299 304 305 307 312 313 314 317 320 323 325 325 326 327 329 330 331 333 335 338 339 339 339 339 339 337 338 337 337 336 334 333
250 254 259 260 262 265 269 273 280 293 298 299 301 303 305 308 309 312 314 317 321 323 322 323 324 326 328 330 331 333 335 337 338 338 338 338 338 338 337 335 332 330 329
262 260 259 260 263 266 269 275 281 285 289 295 299 303 304 306 308 309 311 315 315 319 320 321 322 324 326 328 330 332 334 335 337 338 338 338 338 338 337 335 332 327 325
264 265 264 266 268 272 274 278 281 284 288 294 299 303 305 305 307 309 311 311 312 314 317 319 321 323 325 327 329 331 332 334 336 336 337 337 339 338 338 337 333 328 325
271 270 270 271 272 273 275 277 280 283 287 291 294 297 302 304 303 304 307 310 311 313 315 317 320 322 324 326 328 330 331 333 335 336 337 338 338 339 338 337 334 327 323
274 274 274 274 273 274 275 277 280 283 286 290 294 297 298 300 301 303 305 307 309 311 314 316 319 322 324 325 327 329 330 332 334 335 336 337 337 336 337 337 332 327 322
278 277 276 275 277 277 277 280 282 284 287 290 294 295 296 298 300 301 303 305 307 309 313 315 317 319 322 323 325 327 329 330 332 333 333 334 334 335 336 335 331 325 321
280 279 278 278 279 280 280 281 283 285 287 290 292 293 293 295 298 300 302 304 306 308 311 313 315 317 320 322 323 325 325 327 329 330 331 331 332 333 334 332 329 324 319
284 282 281 281 280 280 281 283 284 285 286 289 291 292 292 294 297 299 301 303 305 307 309 312 314 316 318 320 322 323 323 325 326 326 328 329 329 329 330 329 326 323 318
288 286 284 283 282 282 283 284 285 285 286 288 290 291 291 293 296 298 300 301 304 305 307 310 312 314 316 318 320 321 322 324 324 325 325 325 325 325 325 326 324 321 317
291 289 287 286 285 284 284 285 285 286 286 288 290 290 291 292 295 297 299 300 302 304 306 308 311 312 314 317 319 320 321 322 322 322 322 323 322 323 324 324 323 321 317